{"data":{"norad_id":68844,"epoch":"2026-05-25T04:00:03.998880Z","epoch_age_seconds":50708,"freshness":"FRESH","line1":"1 68844U 26094F   26145.16671295  .00001896  00000+0  36541-4 0  9992","line2":"2 68844  97.2851 159.8520 0001484  88.7689 312.4785 15.49170392  5676","mean_motion":15.49170392,"eccentricity":0.0001484,"inclination_deg":97.2851,"raan_deg":159.852,"arg_perigee_deg":88.7689,"mean_anomaly_deg":312.4785,"bstar":3.6541e-5,"rev_number":567,"period_min":92.952977118349,"perigee_km":418.14298092371,"apogee_km":420.16041620945,"semimajor_km":6797.2886985666,"source":"CELESTRAK","updated_at":"2026-05-25T13:38:22.046588Z"}}